TimeMDT,TemperatureF,Dew PointF,Humidity,Sea Level PressureIn,VisibilityMPH,Wind Direction,Wind SpeedMPH,Gust SpeedMPH,PrecipitationIn,Events,Conditions,WindDirDegrees,DateUTC
2:45 AM,80,60,41,29.75,12,West,2.2,,,,,270,2013-09-21 08:45:00
5:45 AM,79,61,45,29.73,12,West,2.2,,,,,270,2013-09-21 11:45:00
6:51 AM,80.6,68.0,65,29.74,6.0,Calm,Calm,-,N/A,,Partly Cloudy,0,2013-09-21 12:51:00
7:50 AM,80.6,62.6,54,29.75,8.0,Calm,Calm,-,N/A,,Clear,0,2013-09-21 13:50:00
8:44 AM,80.6,66.2,61,29.76,8.0,Calm,Calm,-,N/A,,Clear,0,2013-09-21 14:44:00
8:45 AM,80,59,38,29.76,12,WSW,2.2,,,,,240,2013-09-21 14:45:00
9:44 AM,84.2,68.0,58,29.76,8.0,Calm,Calm,-,N/A,,Clear,0,2013-09-21 15:44:00
10:45 AM,87.8,71.6,58,29.77,8.0,Calm,Calm,-,N/A,,Clear,0,2013-09-21 16:45:00
11:45 AM,93,64,28,29.78,12,ENE,4.5,,,,,60,2013-09-21 17:45:00
11:46 AM,87.8,71.6,58,29.77,8.0,ENE,6.9,-,N/A,,Clear,70,2013-09-21 17:46:00
12:40 PM,87.8,71.6,58,29.77,8.0,ESE,6.9,-,N/A,,Clear,120,2013-09-21 18:40:00
1:42 PM,89.6,73.4,59,29.74,8.0,East,6.9,-,N/A,,Clear,100,2013-09-21 19:42:00
2:42 PM,91.4,73.4,55,29.70,8.0,ESE,6.9,-,N/A,,Clear,120,2013-09-21 20:42:00
2:45 PM,94,69,35,29.72,12,SE,6.7,,,,,140,2013-09-21 20:45:00
3:46 PM,93.2,69.8,46,29.68,10.0,ESE,9.2,-,N/A,,Clear,120,2013-09-21 21:46:00
4:42 PM,93.2,69.8,46,29.67,10.0,ESE,9.2,-,N/A,,Clear,120,2013-09-21 22:42:00
5:43 PM,95.0,71.6,47,29.65,10.0,SSE,9.2,-,N/A,,Clear,160,2013-09-21 23:43:00
5:55 PM,93,70,38,29.68,12,NE,6.7,,,,,40,2013-09-21 23:55:00
6:41 PM,91.4,73.4,55,29.65,10.0,SSE,11.5,-,N/A,,Clear,160,2013-09-22 00:41:00
9:00 PM,86,70,50,,12,SE,2.2,,,,,140,2013-09-22 03:00:00
11:45 PM,82,60,38,29.70,12,West,4.5,,,,,270,2013-09-22 05:45:00